Back to catalog

ALOUETTE 1

S-27

AliveSciencePO
NORAD 424·PAYLOAD·🇨🇦 Canada

Launched Sep 29, 1962 from Vandenberg Space Force Base

Loading…

Next Passes (next 24 hours)

TLE

FreshSource: Space-Track

Epoch: Sep 7, 2026, 05:24 UTC

1 00424U 62049A   26250.22509036  .00000058  00000-0  56493-4 0  9997
2 00424  80.4695 175.2093 0023738  26.9920 333.2454 13.69601773192348

Track ALOUETTE 1 in real time with AllMySat

Download on the App Store